• In Czech Republic
  • List of Countries
  • For 7 days
  • Water Temperature
  • Satellite Maps
  • Weather Map
  • Weather Widgets
  • user-avatar
    Login

    Hourly Weather Jackson

    Today, 25 February, Sunday

    Time Temperature Precipitation Wind Pressure Humidity
    00:00 +22°C° 0.1 mm 5 mps 753 mmHg 85%
    01:00 +21°C° 1.8 mm 5 mps 753 mmHg 87%
    02:00 +20°C° 1.8 mm 5 mps 754 mmHg 88%
    03:00 +19°C° 1.8 mm 5 mps 754 mmHg 90%
    04:00 +17°C° 4.8 mm 4 mps 754 mmHg 90%
    05:00 +14°C° 4.8 mm 4 mps 755 mmHg 89%
    06:00 +13°C° 4.8 mm 3 mps 755 mmHg 89%
    07:00 +13°C° 0.3 mm 3 mps 756 mmHg 87%
    08:00 +14°C° 0.3 mm 2 mps 756 mmHg 86%
    09:00 +15°C° 0.3 mm 2 mps 757 mmHg 85%
    10:00 +15°C° 0.1 mm 2 mps 757 mmHg 84%
    11:00 +15°C° 0.1 mm 2 mps 757 mmHg 83%
    12:00 +16°C° 0.1 mm 2 mps 757 mmHg 82%
    13:00 +16°C° 0.6 mm 2 mps 757 mmHg 84%
    14:00 +16°C° 0.6 mm 2 mps 756 mmHg 85%
    15:00 +15°C° 0.6 mm 1 mps 756 mmHg 87%
    16:00 +15°C° 2.5 mm 2 mps 756 mmHg 89%
    17:00 +15°C° 2.5 mm 2 mps 756 mmHg 92%
    18:00 +15°C° 2.5 mm 2 mps 756 mmHg 95%
    19:00 +15°C° 2.7 mm 2 mps 757 mmHg 95%
    20:00 +14°C° 2.7 mm 2 mps 757 mmHg 95%
    21:00 +14°C° 2.7 mm 2 mps 757 mmHg 95%
    22:00 +14°C° 1.1 mm 2 mps 757 mmHg 95%
    23:00 +14°C° 1.1 mm 2 mps 757 mmHg 95%

    Tomorrow, 26 February, Monday

    Time Temperature Precipitation Wind Pressure Humidity
    00:00 +14°C° 1.1 mm 2 mps 757 mmHg 95%
    01:00 +14°C° 1.2 mm 2 mps 757 mmHg 96%
    02:00 +14°C° 1.2 mm 2 mps 757 mmHg 96%
    03:00 +14°C° 1.2 mm 1 mps 757 mmHg 96%
    04:00 +14°C° 0.2 mm 2 mps 757 mmHg 96%
    05:00 +14°C° 0.2 mm 2 mps 758 mmHg 95%
    06:00 +13°C° 0.2 mm 3 mps 758 mmHg 95%
    07:00 +13°C° 0 mm 3 mps 759 mmHg 92%
    08:00 +14°C° 0 mm 3 mps 759 mmHg 90%
    09:00 +14°C° 0 mm 3 mps 760 mmHg 87%
    10:00 +17°C° 0 mm 3 mps 760 mmHg 78%
    11:00 +18°C° 0 mm 3 mps 760 mmHg 70%
    12:00 +20°C° 0 mm 3 mps 760 mmHg 61%
    13:00 +21°C° 0 mm 2 mps 759 mmHg 57%
    14:00 +21°C° 0 mm 2 mps 759 mmHg 54%
    15:00 +23°C° 0 mm 2 mps 758 mmHg 50%
    16:00 +20°C° 0 mm 2 mps 759 mmHg 56%
    17:00 +18°C° 0 mm 2 mps 759 mmHg 62%
    18:00 +17°C° 0 mm 2 mps 759 mmHg 67%
    19:00 +16°C° 0 mm 2 mps 759 mmHg 69%
    20:00 +15°C° 0 mm 2 mps 759 mmHg 70%
    21:00 +15°C° 0 mm 2 mps 760 mmHg 72%
    22:00 +14°C° 0 mm 2 mps 760 mmHg 73%
    23:00 +14°C° 0 mm 2 mps 760 mmHg 74%

    Day after tomorrow, 27 February, Tuesday

    Time Temperature Precipitation Wind Pressure Humidity
    00:00 +13°C° 0 mm 2 mps 759 mmHg 75%
    01:00 +13°C° 0 mm 2 mps 759 mmHg 74%
    02:00 +14°C° 0 mm 2 mps 759 mmHg 73%
    03:00 +14°C° 0 mm 2 mps 759 mmHg 71%
    04:00 +14°C° 0.1 mm 2 mps 759 mmHg 74%
    05:00 +14°C° 0.1 mm 2 mps 759 mmHg 76%
    06:00 +14°C° 0.1 mm 2 mps 759 mmHg 78%
    07:00 +13°C° 0.5 mm 3 mps 759 mmHg 82%
    08:00 +14°C° 0.5 mm 3 mps 760 mmHg 85%
    09:00 +16°C° 0.5 mm 3 mps 760 mmHg 89%
    10:00 +17°C° 0.3 mm 3 mps 760 mmHg 87%
    11:00 +19°C° 0.3 mm 3 mps 759 mmHg 85%
    12:00 +21°C° 0.3 mm 3 mps 759 mmHg 83%
    13:00 +22°C° 0.1 mm 3 mps 758 mmHg 83%
    14:00 +22°C° 0.1 mm 3 mps 757 mmHg 82%
    15:00 +24°C° 0.1 mm 3 mps 756 mmHg 81%
    16:00 +22°C° 0.9 mm 3 mps 756 mmHg 85%
    17:00 +21°C° 0.9 mm 3 mps 755 mmHg 88%
    18:00 +21°C° 0.9 mm 3 mps 755 mmHg 92%
    19:00 +20°C° 2.2 mm 3 mps 755 mmHg 93%
    20:00 +20°C° 2.2 mm 3 mps 755 mmHg 94%
    21:00 +20°C° 2.2 mm 3 mps 755 mmHg 95%
    22:00 +20°C° 0.2 mm 3 mps 755 mmHg 95%
    23:00 +20°C° 0.2 mm 4 mps 755 mmHg 95%

    28 February, Wednesday

    Time Temperature Precipitation Wind Pressure Humidity
    00:00 +20°C° 0.2 mm 4 mps 754 mmHg 95%
    01:00 +20°C° 0 mm 3 mps 754 mmHg 96%
    02:00 +20°C° 0 mm 3 mps 754 mmHg 96%
    03:00 +19°C° 0 mm 3 mps 753 mmHg 96%
    04:00 +20°C° 0 mm 3 mps 753 mmHg 96%
    05:00 +20°C° 0 mm 3 mps 753 mmHg 96%
    06:00 +20°C° 0 mm 3 mps 753 mmHg 96%
    07:00 +20°C° 0 mm 3 mps 753 mmHg 94%
    08:00 +21°C° 0 mm 4 mps 753 mmHg 92%
    09:00 +21°C° 0 mm 4 mps 753 mmHg 90%
    10:00 +22°C° 0 mm 4 mps 752 mmHg 85%
    11:00 +25°C° 0 mm 5 mps 752 mmHg 81%
    12:00 +26°C° 0 mm 5 mps 751 mmHg 76%
    13:00 +26°C° 0 mm 5 mps 750 mmHg 74%
    14:00 +26°C° 0 mm 5 mps 750 mmHg 72%
    15:00 +26°C° 0 mm 5 mps 749 mmHg 69%
    16:00 +26°C° 0 mm 4 mps 749 mmHg 72%
    17:00 +25°C° 0 mm 4 mps 749 mmHg 75%
    18:00 +24°C° 0 mm 3 mps 749 mmHg 77%
    19:00 +22°C° 0 mm 4 mps 749 mmHg 78%
    20:00 +22°C° 0 mm 4 mps 749 mmHg 80%
    21:00 +22°C° 0 mm 4 mps 749 mmHg 81%
    22:00 +22°C° 0.1 mm 5 mps 748 mmHg 83%
    23:00 +22°C° 0.1 mm 5 mps 748 mmHg 85%

    1 March, Thursday

    Time Temperature Precipitation Wind Pressure Humidity
    00:00 +22°C° 0.1 mm 6 mps 748 mmHg 87%
    01:00 +21°C° 1.6 mm 5 mps 748 mmHg 87%
    02:00 +21°C° 1.6 mm 5 mps 748 mmHg 86%
    03:00 +20°C° 1.6 mm 5 mps 748 mmHg 86%
    04:00 +19°C° 1.4 mm 4 mps 749 mmHg 86%
    05:00 +18°C° 1.4 mm 3 mps 749 mmHg 86%
    06:00 +17°C° 1.4 mm 3 mps 749 mmHg 86%
    07:00 +17°C° 1.6 mm 3 mps 750 mmHg 83%
    08:00 +15°C° 1.6 mm 4 mps 751 mmHg 81%
    09:00 +14°C° 1.6 mm 4 mps 752 mmHg 78%
    10:00 +15°C° 0 mm 4 mps 753 mmHg 71%
    11:00 +16°C° 0 mm 5 mps 753 mmHg 64%
    12:00 +17°C° 0 mm 6 mps 753 mmHg 57%
    13:00 +17°C° 0 mm 6 mps 753 mmHg 56%
    14:00 +17°C° 0 mm 6 mps 754 mmHg 55%
    15:00 +17°C° 0 mm 6 mps 754 mmHg 54%
    16:00 +16°C° 0 mm 5 mps 754 mmHg 57%
    17:00 +14°C° 0 mm 4 mps 755 mmHg 60%
    18:00 +13°C° 0 mm 3 mps 756 mmHg 64%
    19:00 +12°C° 0 mm 3 mps 756 mmHg 64%
    20:00 +11°C° 0 mm 3 mps 757 mmHg 64%
    21:00 +10°C° 0 mm 3 mps 758 mmHg 65%
    22:00 +10°C° 0 mm 3 mps 758 mmHg 64%
    23:00 +9°C° 0 mm 3 mps 758 mmHg 63%

    2 March, Friday

    Time Temperature Precipitation Wind Pressure Humidity
    00:00 +9°C° 0 mm 3 mps 758 mmHg 63%
    01:00 +8°C° 0 mm 3 mps 758 mmHg 65%
    02:00 +8°C° 0 mm 3 mps 758 mmHg 67%
    03:00 +7°C° 0 mm 2 mps 758 mmHg 69%
    04:00 +6°C° 0 mm 2 mps 759 mmHg 70%
    05:00 +6°C° 0 mm 2 mps 759 mmHg 71%
    06:00 +5°C° 0 mm 2 mps 759 mmHg 72%
    07:00 +7°C° 0 mm 2 mps 760 mmHg 66%
    08:00 +8°C° 0 mm 2 mps 760 mmHg 61%
    09:00 +9°C° 0 mm 2 mps 761 mmHg 55%
    10:00 +12°C° 0 mm 2 mps 761 mmHg 51%
    11:00 +14°C° 0 mm 2 mps 760 mmHg 46%
    12:00 +15°C° 0 mm 2 mps 760 mmHg 42%
    13:00 +16°C° 0 mm 2 mps 760 mmHg 43%
    14:00 +16°C° 0 mm 2 mps 759 mmHg 44%
    15:00 +17°C° 0 mm 2 mps 758 mmHg 45%
    16:00 +16°C° 0 mm 2 mps 758 mmHg 51%
    17:00 +14°C° 0 mm 2 mps 758 mmHg 57%
    18:00 +13°C° 0 mm 2 mps 758 mmHg 63%
    19:00 +12°C° 0 mm 2 mps 759 mmHg 66%
    20:00 +10°C° 0 mm 2 mps 759 mmHg 68%
    21:00 +10°C° 0 mm 2 mps 759 mmHg 70%
    22:00 +9°C° 0 mm 2 mps 759 mmHg 73%
    23:00 +8°C° 0 mm 2 mps 759 mmHg 76%
    Show more